Wetterdaten: aktuell Freitag, 08.05.2026 20:19
Datum Zeit Temp. A. Feuchte A. Luftdruck Regen Wind Richtung Richtung Taupunkt Windchill
08.05.2026 20:19 17,8 °C 20 % 1010,1 hPa 0,0 l/m² 2,8 km/h (1 Bft) N 355 ° -5,4 °C 17,8 °C
08.05.2026 20:17 17,8 °C 20 % 1009,1 hPa 0,0 l/m² 2,3 km/h (1 Bft) N 355 ° -5,4 °C 17,8 °C
08.05.2026 20:14 17,8 °C 20 % 1009,1 hPa 0,0 l/m² 2,3 km/h (1 Bft) N 355 ° -5,4 °C 17,8 °C
08.05.2026 20:13 18,1 °C 20 % 1009,1 hPa 0,0 l/m² 3,6 km/h (1 Bft) N-NW 345 ° -5,2 °C 18,1 °C
08.05.2026 20:11 18,1 °C 20 % 1009,1 hPa 0,0 l/m² 3,9 km/h (1 Bft) N-NW±22.5° 345 ° -5,2 °C 18,1 °C
08.05.2026 20:09 18,0 °C 20 % 1009,1 hPa 0,0 l/m² 3,9 km/h (1 Bft) N-NW±22.5° 345 ° -5,3 °C 18,0 °C
08.05.2026 20:07 18,2 °C 20 % 1010,1 hPa 0,0 l/m² 0,0 km/h (0 Bft) N 355 ° -5,1 °C 18,2 °C
08.05.2026 20:05 18,2 °C 20 % 1009,1 hPa 0,0 l/m² 0,0 km/h (0 Bft) N 355 ° -5,1 °C 18,2 °C
08.05.2026 20:03 18,3 °C 20 % 1009,1 hPa 0,0 l/m² 0,3 km/h (0 Bft) N 355 ° -5,0 °C 18,3 °C
08.05.2026 20:01 18,4 °C 20 % 1009,1 hPa 0,0 l/m² 0,3 km/h (0 Bft) N 355 ° -4,9 °C 18,4 °C
08.05.2026 19:59 18,4 °C 20 % 1009,1 hPa 0,0 l/m² 0,6 km/h (0 Bft) N 350 ° -4,9 °C 18,4 °C
08.05.2026 19:57 18,4 °C 20 % 1009,1 hPa 0,0 l/m² 0,1 km/h (0 Bft) N 350 ° -4,9 °C 18,4 °C
08.05.2026 19:55 18,5 °C 20 % 1009,1 hPa 0,0 l/m² 0,1 km/h (0 Bft) N 350 ° -4,9 °C 18,5 °C
08.05.2026 19:53 18,5 °C 20 % 1009,1 hPa 0,0 l/m² 2,6 km/h (1 Bft) N 350 ° -4,9 °C 18,5 °C
08.05.2026 19:51 18,5 °C 20 % 1009,1 hPa 0,0 l/m² 5,2 km/h (1 Bft) N 350 ° -4,9 °C 18,5 °C
08.05.2026 19:49 18,5 °C 20 % 1009,1 hPa 0,0 l/m² 1,3 km/h (1 Bft) N 350 ° -4,9 °C 18,5 °C
08.05.2026 19:47 18,5 °C 20 % 1009,1 hPa 0,0 l/m² 1,3 km/h (1 Bft) N 350 ° -4,9 °C 18,5 °C
08.05.2026 19:45 18,6 °C 20 % 1009,1 hPa 0,0 l/m² 0,4 km/h (0 Bft) N 350 ° -4,8 °C 18,6 °C
08.05.2026 19:43 18,6 °C 20 % 1009,1 hPa 0,0 l/m² 0,5 km/h (0 Bft) N 350 ° -4,8 °C 18,6 °C
08.05.2026 19:41 18,5 °C 20 % 1009,1 hPa 0,0 l/m² 3,9 km/h (1 Bft) N 350 ° -4,9 °C 18,5 °C
08.05.2026 19:39 18,5 °C 20 % 1009,1 hPa 0,0 l/m² 3,9 km/h (1 Bft) N 350 ° -4,9 °C 18,5 °C
08.05.2026 19:37 18,5 °C 20 % 1009,1 hPa 0,0 l/m² 0,9 km/h (0 Bft) N 5 ° -4,9 °C 18,5 °C
08.05.2026 19:34 18,7 °C 20 % 1009,1 hPa 0,0 l/m² 0,9 km/h (0 Bft) N 5 ° -4,7 °C 18,7 °C
08.05.2026 19:33 18,7 °C 20 % 1009,1 hPa 0,0 l/m² 0,9 km/h (0 Bft) N 5 ° -4,7 °C 18,7 °C
08.05.2026 19:31 18,7 °C 20 % 1009,1 hPa 0,0 l/m² 4,0 km/h (1 Bft) NO±67.5° 35 ° -4,7 °C 18,7 °C
08.05.2026 19:29 18,7 °C 20 % 1009,1 hPa 0,0 l/m² 5,3 km/h (1 Bft) NO±67.5° 35 ° -4,7 °C 18,7 °C
08.05.2026 19:27 18,7 °C 20 % 1009,1 hPa 0,0 l/m² 0,4 km/h (0 Bft) N 5 ° -4,7 °C 18,7 °C
08.05.2026 19:25 18,9 °C 20 % 1009,1 hPa 0,0 l/m² 0,4 km/h (0 Bft) N 5 ° -4,5 °C 18,9 °C
08.05.2026 19:23 18,9 °C 20 % 1009,1 hPa 0,0 l/m² 5,4 km/h (1 Bft) O-SO±67.5° 110 ° -4,5 °C 18,9 °C
08.05.2026 19:21 18,9 °C 20 % 1009,1 hPa 0,0 l/m² 4,2 km/h (1 Bft) NO±67.5° 35 ° -4,5 °C 18,9 °C
08.05.2026 19:19 18,7 °C 20 % 1009,1 hPa 0,0 l/m² 3,9 km/h (1 Bft) N±22.5° 5 ° -4,7 °C 18,7 °C
08.05.2026 19:17 18,9 °C 20 % 1009,1 hPa 0,0 l/m² 3,9 km/h (1 Bft) N±22.5° 5 ° -4,5 °C 18,9 °C
08.05.2026 19:15 18,9 °C 20 % 1009,1 hPa 0,0 l/m² 7,9 km/h (2 Bft) N±22.5° 360 ° -4,5 °C 18,2 °C
08.05.2026 19:13 18,9 °C 20 % 1009,1 hPa 0,0 l/m² 7,9 km/h (2 Bft) N±22.5° 360 ° -4,5 °C 18,2 °C
08.05.2026 19:11 18,9 °C 20 % 1009,1 hPa 0,0 l/m² 7,9 km/h (2 Bft) N±22.5° 360 ° -4,5 °C 18,2 °C
08.05.2026 19:09 18,9 °C 20 % 1009,1 hPa 0,0 l/m² 6,1 km/h (2 Bft) N±22.5° 5 ° -4,5 °C 18,9 °C
08.05.2026 19:07 19,2 °C 20 % 1009,1 hPa 0,0 l/m² 1,0 km/h (0 Bft) N±22.5° 360 ° -4,3 °C 19,2 °C
08.05.2026 19:05 19,1 °C 20 % 1009,1 hPa 0,0 l/m² 6,1 km/h (2 Bft) N±22.5° 350 ° -4,4 °C 19,1 °C
08.05.2026 19:03 19,1 °C 20 % 1009,1 hPa 0,0 l/m² 6,1 km/h (2 Bft) N±22.5° 350 ° -4,4 °C 19,1 °C
08.05.2026 19:01 19,2 °C 20 % 1009,1 hPa 0,0 l/m² 6,5 km/h (2 Bft) NO±67.5° 50 ° -4,3 °C 19,2 °C
08.05.2026 18:59 19,3 °C 20 % 1009,1 hPa 0,0 l/m² 5,2 km/h (1 Bft) NO±67.5° 50 ° -4,2 °C 19,3 °C
_ Min-Zeit 06:29 15:17 18:37 - 00:07 - - 20:14 06:29
Minimum _ 7,0 °C 20 % 1009,0 hPa - 0,0 km/h (0 Bft) - - -5,4 °C 7,0 °C
_ Max-Zeit 18:37 06:57 08:51 00:01 11:15 - - 00:01 18:37
Maximum _ 19,6 °C 88 % 1012,5 hPa 0,0 l/m² 10,9 km/h
O-NO (2 Bft)
- - 7,3 °C 19,6 °C
Durchschnitt _ 13,5 °C 54 % 1010,5 hPa #0,0 l/m² 2,2 km/h (1 Bft) N - 2,4 °C 13,4 °C